Location: Cisewo
(53.3833°N, 14.9000°E)
Time: 10:22:49
(UTC+00:00)

Cosmos 2297 Rocket - Pass Details

Date: 18 April 2021
Orbit: 838 x 845 km, 71.0° (Epoch: 14 May)

Event Time Altitude Azimuth Distance (km) Brightness Sun altitude
Exits shadow 21:43:46 - 234° (SW) 3,385 5.2 -23.5°
Reaches altitude 10° 21:46:19 10° 241° (WSW) 2,457 4.5 -23.6°
Maximum altitude 21:51:41 44° 313° (NW) 1,163 3.3 -23.9°
Drops below altitude 10° 21:57:06 10° 25° (NNE) 2,474 5.2 -24.1°
Sets 21:59:41 0° 32° (NNE) 3,413 5.9 -24.2°
